[[{"header":{"parameterUnit":"m.s-1","parameterCategory":1,"la1":30.2991,"la2":30.254,"lo1":-89.0895,"lo2":-89.0444,"dy":0.0017,"dx":0.0017,"nx":28,"ny":28,"refTime":"2025-11-13T03:00:00:Z","depth":0,"parameterNumber":2,"parameterNumberName":"U-component_of_WINDS"},"data":[0,0,0,0,0,0,0,0,0,0,0,0,0,0,0,0,0,0,0,0,0,0,0,0,0,0,0,0,0,0,0,0,0,0,0,0,0,0,0,0,0,0,0,0,0,0,0,0,0,0,0,0,0,0,0,0,0,0,-1.1527,-1.1526,0,-1.1445,-1.1444,-1.1443,-1.1385,-1.1385,-1.1384,-1.1384,-1.1299,-1.1297,-1.1295,0,0,0,0,0,0,0,0,0,0,0,0,0,-1.1636,-1.1634,-1.1527,-1.1526,-1.1525,-1.1445,-1.1444,-1.1443,-1.1385,-1.1385,-1.1384,-1.1384,-1.13,-1.1298,-1.1295,0,0,0,0,0,0,0,0,0,0,0,0,0,-1.1575,-1.1634,-1.1527,-1.1487,-1.1482,-1.1445,-1.1444,-1.1443,-1.1385,-1.1385,-1.1384,-1.1383,-1.13,-1.1298,-1.1295,-1.1291,0,0,-1.1287,-1.1285,0,0,0,0,0,0,0,0,-1.1578,-1.1571,-1.1494,-1.149,-1.1485,-1.1425,-1.1451,-1.1392,-1.1386,-1.1422,-1.1384,-1.1383,-1.1341,-1.1335,-1.1321,-1.1287,-1.1284,-1.1286,-1.1285,-1.1283,-1.1283,0,0,0,0,0,0,0,-1.1582,-1.1574,-1.1495,-1.1493,-1.1487,-1.1473,-1.1464,-1.144,-1.1387,-1.1419,-1.1415,-1.1406,-1.1339,-1.1324,-1.1319,-1.1283,-1.1286,-1.1284,-1.1282,-1.1281,-1.1245,-1.1245,0,0,0,0,0,0,-1.1593,-1.1578,-1.1497,-1.1492,-1.1531,-1.1472,-1.1461,-1.1445,-1.1387,-1.1377,-1.1406,-1.1403,-1.1329,-1.1322,-1.1316,-1.1309,-1.1283,-1.1281,-1.1279,-1.1244,-1.1245,-1.1246,0,0,0,0,0,0,-1.1596,-1.1586,-1.1501,-1.1534,-1.1522,-1.1471,-1.1452,-1.1443,-1.1429,-1.1377,-1.1367,-1.1401,-1.1328,-1.1319,-1.1299,-1.1305,-1.128,-1.1277,-1.1243,-1.1244,-1.1245,-1.1296,0,0,0,0,0,0,-1.1599,-1.1588,-1.1585,-1.1534,-1.152,-1.1485,-1.1453,-1.1442,-1.1424,-1.1419,-1.137,-1.1361,-1.1327,-1.1303,-1.1296,-1.1301,-1.1275,-1.1242,-1.1244,-1.1245,-1.1293,-1.1298,-1.1303,0,0,0,0,0,-1.1603,-1.1602,-1.1585,-1.1576,-1.1516,-1.1485,-1.1477,-1.1439,-1.1425,-1.1422,-1.139,-1.1362,-1.1306,-1.1301,-1.1293,-1.1297,-1.1242,-1.1243,-1.1245,-1.1291,-1.1297,-1.1303,0,0,0,0,0,0,-1.1654,-1.1595,-1.1575,-1.1558,-1.1527,-1.1475,-1.1471,-1.1446,-1.1418,-1.1415,-1.1368,-1.1358,-1.1342,-1.1317,-1.1313,-1.1292,-1.1271,-1.1271,-1.1309,-1.1314,-1.1319,-1.1325,-1.1273,0,0,0,0,0,-1.1664,-1.1643,-1.1592,-1.1582,-1.1567,-1.1522,-1.1507,-1.148,-1.1447,-1.1433,-1.1399,-1.1367,-1.1342,-1.1327,-1.1301,-1.129,-1.1279,-1.1289,-1.1294,-1.1298,-1.1299,-1.1293,-1.1297,-1.1251,-1.1251,-1.1251,0,0,-1.1683,-1.1648,-1.1637,-1.1591,-1.1564,-1.1545,-1.1511,-1.1492,-1.1477,-1.143,-1.1408,-1.1383,-1.1344,-1.1329,-1.132,-1.1308,-1.1309,-1.13,-1.1304,-1.1302,-1.1295,-1.13,-1.1304,-1.1252,-1.1251,-1.1251,0,0,-1.1707,-1.1678,-1.1667,-1.1642,-1.1602,-1.1572,-1.157,-1.1522,-1.1504,-1.1482,-1.1447,-1.1429,-1.1387,-1.1362,-1.1343,-1.1362,-1.1336,-1.1355,-1.138,-1.1375,-1.1379,-1.1382,-1.139,-1.1394,-1.1356,-1.1356,-1.1356,0,-1.1736,-1.1705,-1.1665,-1.1648,-1.1629,-1.1587,-1.1577,-1.1553,-1.1507,-1.1496,-1.1483,-1.1431,-1.1402,-1.1381,-1.1386,-1.1372,-1.1369,-1.136,-1.1382,-1.1384,-1.1387,-1.1394,-1.1397,-1.1358,-1.1358,-1.1358,-1.1358,0,-1.1743,-1.1722,-1.1718,-1.1676,-1.1657,-1.1643,-1.1602,-1.1588,-1.1564,-1.1536,-1.1515,-1.148,-1.1447,-1.144,-1.1415,-1.1417,-1.1411,-1.139,-1.1367,-1.1394,-1.1401,-1.1403,-1.1362,-1.1361,-1.136,-1.136,0,0,-1.1795,-1.1733,-1.1733,-1.1714,-1.1668,-1.1652,-1.1637,-1.1606,-1.1596,-1.1566,-1.1553,-1.152,-1.1502,-1.1482,-1.1454,-1.145,-1.147,-1.143,-1.1429,-1.144,-1.1471,-1.1487,-1.1491,-1.1453,-1.1453,-1.1453,-1.1475,0,-1.1814,-1.1785,-1.175,-1.1734,-1.1715,-1.1676,-1.1664,-1.1635,-1.161,-1.1591,-1.1562,-1.154,-1.1517,-1.1505,-1.1499,-1.1468,-1.1475,-1.1466,-1.1441,-1.1441,-1.1453,-1.1494,-1.151,-1.1532,-1.1477,-1.1477,-1.1477,0,-1.1831,-1.1805,-1.1787,-1.1745,-1.1736,-1.1726,-1.1696,-1.1678,-1.1645,-1.1627,-1.1606,-1.1577,-1.1561,-1.1541,-1.1519,-1.1514,-1.1502,-1.1486,-1.1486,-1.1483,-1.1461,-1.1493,-1.1538,-1.1542,-1.148,-1.148,-1.148,0,-1.1873,-1.1833,-1.1818,-1.1803,-1.1754,-1.1748,-1.1727,-1.1693,-1.1678,-1.1652,-1.1642,-1.1615,-1.16,-1.158,-1.1545,-1.1533,-1.1528,-1.1504,-1.1513,-1.1514,-1.1514,-1.1514,-1.1559,-1.1505,-1.1505,-1.1505,-1.1505,0,-1.1898,-1.1889,-1.1837,-1.1827,-1.1817,-1.1777,-1.1768,-1.1744,-1.1715,-1.1702,-1.1666,-1.1654,-1.1608,-1.1591,-1.1564,-1.1552,-1.1545,-1.153,-1.1523,-1.1534,-1.1536,-1.1526,-1.1524,-1.1505,-1.1505,-1.1505,-1.1505,0,-1.1943,-1.1907,-1.1889,-1.1844,-1.1833,-1.1828,-1.179,-1.178,-1.1753,-1.1737,-1.173,-1.1688,-1.1667,-1.163,-1.1598,-1.158,-1.1573,-1.156,-1.1584,-1.158,-1.1592,-1.1592,-1.1632,-1.1636,-1.1579,-1.1579,-1.158,0,-1.1961,-1.1953,-1.1909,-1.1898,-1.1878,-1.186,-1.1845,-1.1806,-1.1792,-1.1756,-1.1751,-1.1727,-1.1705,-1.1673,-1.164,-1.1616,-1.1603,-1.1619,-1.1599,-1.1611,-1.1605,-1.1607,-1.1607,-1.1624,-1.1625,-1.1625,-1.1626,0,-1.1997,-1.1981,-1.196,-1.1934,-1.1917,-1.1895,-1.1871,-1.1863,-1.182,-1.1806,-1.1784,-1.1767,-1.1736,-1.1713,-1.1684,-1.1664,-1.1638,-1.1632,-1.1634,-1.1645,-1.1659,-1.1653,-1.1598,-1.1632,-1.1631,-1.1631,-1.163,-1.163,-1.203,-1.2023,-1.1991,-1.197,-1.1948,-1.1927,-1.1917,-1.1889,-1.187,-1.1842,-1.1821,-1.1801,-1.1771,-1.173,-1.1712,-1.1696,-1.1684,-1.1685,-1.1686,-1.1687,-1.1692,-1.1662,-1.1691,-1.169,-1.169,-1.169,-1.169,0,-1.2066,-1.2044,-1.2025,-1.1994,-1.1978,-1.1956,-1.1929,-1.1917,-1.19,-1.1874,-1.1855,-1.1831,-1.181,-1.1776,-1.1753,-1.1747,-1.1735,-1.1742,-1.1743,-1.1739,-1.1703,-1.1705,-1.1753,-1.1753,-1.1753,-1.1753,-1.1753,-1.1753,-1.2083,-1.207,-1.205,-1.2027,-1.2005,-1.1986,-1.1973,-1.1954,-1.1934,-1.1909,-1.1891,-1.187,-1.1842,-1.1816,-1.1796,-1.1787,-1.1781,-1.1792,-1.1779,-1.1747,-1.1741,-1.1735,-1.1737,-1.179,-1.1791,-1.1816,-1.1817,-1.1817]},{"header":{"parameterUnit":"m.s-1","parameterCategory":1,"la1":30.2991,"la2":30.254,"lo1":-89.0895,"lo2":-89.0444,"dy":0.0017,"dx":0.0017,"nx":28,"ny":28,"refTime":"2025-11-13T03:00:00:Z","depth":0,"parameterNumber":3,"parameterNumberName":"V-component_of_WINDS"},"data":[0,0,0,0,0,0,0,0,0,0,0,0,0,0,0,0,0,0,0,0,0,0,0,0,0,0,0,0,0,0,0,0,0,0,0,0,0,0,0,0,0,0,0,0,0,0,0,0,0,0,0,0,0,0,0,0,0,0,0.1422,0.1422,0,0.1392,0.1392,0.1391,0.1377,0.1377,0.1377,0.1377,0.1344,0.1343,0.1342,0,0,0,0,0,0,0,0,0,0,0,0,0,0.1466,0.1466,0.1422,0.1422,0.1422,0.1392,0.1391,0.1391,0.1377,0.1377,0.1377,0.1377,0.1344,0.1343,0.1342,0,0,0,0,0,0,0,0,0,0,0,0,0,0.1443,0.1465,0.1422,0.1411,0.141,0.1392,0.1391,0.1391,0.1377,0.1377,0.1377,0.1377,0.1344,0.1343,0.1342,0.1333,0,0,0.1338,0.1337,0,0,0,0,0,0,0,0,0.1444,0.1441,0.1413,0.1412,0.141,0.1388,0.1395,0.1371,0.1377,0.1389,0.1377,0.1377,0.1358,0.1356,0.135,0.1331,0.133,0.1338,0.1337,0.1336,0.1336,0,0,0,0,0,0,0,0.1446,0.1442,0.141,0.1413,0.1411,0.1407,0.1403,0.139,0.1374,0.1388,0.1387,0.1384,0.1358,0.1351,0.1349,0.1329,0.1338,0.1336,0.1336,0.1335,0.1301,0.1301,0,0,0,0,0,0,0.1449,0.1444,0.1411,0.1409,0.1428,0.1406,0.1402,0.1395,0.1374,0.1371,0.1384,0.1383,0.1354,0.1351,0.1348,0.1335,0.1336,0.1335,0.1334,0.1301,0.1301,0.13,0,0,0,0,0,0,0.145,0.1447,0.1412,0.1426,0.1422,0.1405,0.1397,0.1395,0.1388,0.1371,0.1368,0.138,0.1354,0.135,0.1337,0.1334,0.1334,0.1333,0.1301,0.1301,0.1301,0.1311,0,0,0,0,0,0,0.1452,0.1447,0.1444,0.1426,0.1421,0.1402,0.1397,0.1394,0.1386,0.1385,0.1367,0.1364,0.1353,0.1339,0.1335,0.1332,0.1332,0.1301,0.1301,0.1301,0.1311,0.1311,0.1311,0,0,0,0,0,0.1453,0.1448,0.1444,0.144,0.1417,0.1402,0.1399,0.1388,0.1386,0.1383,0.1371,0.1364,0.1335,0.1338,0.1334,0.133,0.1301,0.1301,0.1301,0.131,0.1311,0.1311,0,0,0,0,0,0,0.1466,0.1446,0.1441,0.143,0.1418,0.14,0.1395,0.1389,0.1377,0.1376,0.1362,0.1358,0.1346,0.1336,0.134,0.132,0.1317,0.1316,0.1326,0.1326,0.1327,0.1329,0.1331,0,0,0,0,0,0.1467,0.1458,0.144,0.1432,0.1426,0.1412,0.1405,0.1397,0.1384,0.1379,0.1366,0.1353,0.1341,0.1333,0.1321,0.1309,0.1304,0.1305,0.1305,0.1306,0.1305,0.1297,0.1296,0.13,0.13,0.13,0,0,0.147,0.1458,0.1453,0.1434,0.1424,0.1414,0.1408,0.1397,0.1389,0.1377,0.1364,0.1354,0.1339,0.1326,0.1319,0.1318,0.1303,0.1305,0.1306,0.1305,0.1296,0.1296,0.1296,0.13,0.13,0.13,0,0,0.147,0.146,0.1452,0.1442,0.1427,0.1417,0.1415,0.1398,0.1391,0.1377,0.1368,0.1358,0.1337,0.1326,0.1318,0.1313,0.1306,0.1309,0.1311,0.1303,0.1303,0.1303,0.13,0.13,0.1308,0.1308,0.1308,0,0.1475,0.146,0.1448,0.1438,0.143,0.1419,0.141,0.14,0.1382,0.1376,0.1375,0.1348,0.1337,0.1321,0.132,0.1314,0.131,0.1311,0.1304,0.1304,0.1303,0.1301,0.13,0.1309,0.1309,0.1309,0.1309,0,0.1467,0.1456,0.1451,0.1434,0.1425,0.1416,0.1402,0.1394,0.1387,0.1377,0.1363,0.1349,0.1333,0.1329,0.1322,0.1312,0.1311,0.1307,0.1304,0.1304,0.1301,0.13,0.131,0.1309,0.1309,0.1309,0,0,0.1474,0.145,0.1448,0.144,0.1422,0.1413,0.1402,0.1388,0.1381,0.1368,0.1359,0.1341,0.1337,0.1328,0.1319,0.1313,0.1309,0.1309,0.1309,0.1309,0.1296,0.1298,0.1298,0.1304,0.1304,0.1304,0.1297,0,0.1471,0.1452,0.1441,0.1427,0.1416,0.1405,0.1396,0.1383,0.1374,0.1363,0.1352,0.1339,0.1335,0.133,0.1323,0.1311,0.1306,0.1311,0.1294,0.1293,0.1298,0.1296,0.1299,0.1293,0.1296,0.1295,0.1295,0,0.1465,0.1453,0.1437,0.142,0.1415,0.1407,0.1392,0.1382,0.1367,0.136,0.135,0.1341,0.1329,0.1327,0.1309,0.1313,0.1305,0.1298,0.1298,0.1295,0.1294,0.1293,0.1291,0.129,0.1294,0.1294,0.1294,0,0.1471,0.1451,0.1438,0.1432,0.1411,0.1406,0.1397,0.1382,0.1373,0.136,0.1354,0.134,0.1331,0.132,0.1307,0.1307,0.129,0.1288,0.1283,0.1284,0.128,0.128,0.1277,0.1276,0.1276,0.1276,0.1276,0,0.1468,0.1459,0.1441,0.1433,0.1422,0.1409,0.1399,0.1389,0.1376,0.1365,0.1355,0.1345,0.1329,0.1317,0.1307,0.1293,0.129,0.1284,0.1281,0.1284,0.1285,0.1279,0.1279,0.1276,0.1276,0.1276,0.1276,0,0.1473,0.1461,0.1447,0.1428,0.1423,0.1416,0.14,0.1392,0.1381,0.1368,0.1365,0.1348,0.1334,0.132,0.13,0.1293,0.1279,0.1276,0.1285,0.1283,0.1279,0.128,0.1271,0.1269,0.127,0.127,0.127,0,0.1472,0.1465,0.1446,0.1438,0.143,0.1418,0.1409,0.1396,0.1387,0.1369,0.1363,0.1348,0.1335,0.1312,0.1298,0.1283,0.1279,0.1277,0.1276,0.128,0.1278,0.1278,0.1277,0.1277,0.1277,0.1277,0.1277,0,0.1472,0.1466,0.1454,0.1439,0.1429,0.1417,0.1405,0.1399,0.1383,0.1373,0.1359,0.1349,0.1329,0.1314,0.1297,0.1287,0.1279,0.1277,0.1275,0.1278,0.1283,0.128,0.1285,0.1277,0.1277,0.1277,0.1277,0.1277,0.1473,0.1466,0.1451,0.1438,0.1427,0.1415,0.1406,0.1395,0.1383,0.1366,0.1358,0.1343,0.1328,0.1304,0.1294,0.1282,0.128,0.1277,0.1276,0.1276,0.1276,0.1286,0.1278,0.1278,0.1278,0.1278,0.1278,0,0.1472,0.1461,0.1449,0.1432,0.1421,0.1415,0.1401,0.1392,0.1379,0.1366,0.1353,0.1336,0.1321,0.1305,0.1289,0.1282,0.1278,0.1278,0.1278,0.1276,0.1279,0.1282,0.1282,0.1282,0.1282,0.1282,0.1282,0.1282,0.147,0.1457,0.1449,0.143,0.1419,0.1405,0.1397,0.1386,0.1375,0.1356,0.1344,0.1334,0.1319,0.1302,0.1287,0.1283,0.1277,0.1278,0.1273,0.1276,0.1276,0.1276,0.1279,0.1277,0.1277,0.1271,0.1271,0.1271]}]]